| time (UTC) | temp C | wind direction | speed KPH | gust KPH | rain 1hr cm | rain 24hr cm | rain mn cm | humidity % | barometer mb |
| 20260507152058 | 16 | 38 | 4.8 | 8.0 | 0.00 | 0.00 | 0.00 | 51 | 1013.5 |
| 20260507151554 | 16 | 161 | 4.8 | 4.8 | 0.00 | 0.00 | 0.00 | 53 | 1013.3 |
| 20260507151051 | 15 | 61 | 0.0 | 1.6 | 0.00 | 0.00 | 0.00 | 55 | 1013.7 |
| 20260507150549 | 15 | 63 | 1.6 | 3.2 | 0.00 | 0.00 | 0.00 | 54 | 1013.7 |
| 20260507150045 | 15 | 108 | 8.0 | 12.9 | 0.00 | 0.00 | 0.00 | 56 | 1013.7 |
| 20260507145540 | 15 | 89 | 4.8 | 4.8 | 0.00 | 0.00 | 0.00 | 56 | 1013.7 |
| 20260507145038 | 15 | 87 | 3.2 | 3.2 | 0.00 | 0.00 | 0.00 | 57 | 1014.0 |
| 20260507144534 | 14 | 159 | 6.4 | 8.0 | 0.00 | 0.00 | 0.00 | 61 | 1013.9 |
| 20260507144032 | 14 | 168 | 4.8 | 4.8 | 0.00 | 0.00 | 0.00 | 59 | 1013.9 |
| 20260507143529 | 14 | 2 | 3.2 | 3.2 | 0.00 | 0.00 | 0.00 | 61 | 1013.9 |
| 20260507143026 | 13 | 14 | 3.2 | 4.8 | 0.00 | 0.00 | 0.00 | 60 | 1014.1 |
| 20260507142522 | 12 | 6 | 4.8 | 4.8 | 0.00 | 0.00 | 0.00 | 64 | 1014.0 |
| 20260507142019 | 12 | 86 | 3.2 | 3.2 | 0.00 | 0.00 | 0.00 | 65 | 1014.1 |
| 20260507141515 | 12 | 160 | 6.4 | 9.7 | 0.00 | 0.00 | 0.00 | 65 | 1014.0 |
| 20260507141012 | 12 | 355 | 4.8 | 9.7 | 0.00 | 0.00 | 0.00 | 67 | 1014.1 |
| 20260507140508 | 12 | 13 | 3.2 | 4.8 | 0.00 | 0.00 | 0.00 | 66 | 1014.2 |
| 20260507140006 | 11 | 38 | 1.6 | 3.2 | 0.00 | 0.00 | 0.00 | 68 | 1014.3 |
| 20260507135502 | 11 | 82 | 1.6 | 1.6 | 0.00 | 0.00 | 0.00 | 68 | 1014.3 |
| 20260507134959 | 11 | 62 | 0.0 | 1.6 | 0.00 | 0.00 | 0.00 | 69 | 1014.3 |
| 20260507134455 | 11 | 44 | 0.0 | 1.6 | 0.00 | 0.00 | 0.00 | 70 | 1014.2 |
| 20260507133946 | 11 | 20 | 1.6 | 4.8 | 0.00 | 0.00 | 0.00 | 71 | 1014.2 |
| 20260507133442 | 10 | 215 | 4.8 | 8.0 | 0.00 | 0.00 | 0.00 | 71 | 1014.5 |
| 20260507132936 | 10 | 17 | 3.2 | 4.8 | 0.00 | 0.00 | 0.00 | 73 | 1014.6 |
| 20260507132431 | 10 | 98 | 1.6 | 3.2 | 0.00 | 0.00 | 0.00 | 73 | 1014.5 |
| 20260507131928 | 10 | 333 | 1.6 | 3.2 | 0.00 | 0.00 | 0.00 | 75 | 1014.3 |
| 20260507131425 | 10 | 87 | 3.2 | 3.2 | 0.00 | 0.00 | 0.00 | 76 | 1014.4 |
| 20260507130922 | 10 | 224 | 8.0 | 9.7 | 0.00 | 0.00 | 0.00 | 76 | 1014.4 |
| 20260507130419 | 9 | 69 | 3.2 | 3.2 | 0.00 | 0.00 | 0.00 | 77 | 1014.8 |
| 20260507125918 | 9 | 40 | 1.6 | 1.6 | 0.00 | 0.00 | 0.00 | 78 | 1014.5 |
| 20260507125415 | 8 | 35 | 0.0 | 1.6 | 0.00 | 0.00 | 0.00 | 79 | 1014.5 |
| 20260507124913 | 8 | 77 | 3.2 | 8.0 | 0.00 | 0.00 | 0.00 | 79 | 1014.4 |
| 20260507124408 | 8 | 53 | 1.6 | 1.6 | 0.00 | 0.00 | 0.00 | 80 | 1014.5 |
| 20260507123907 | 8 | 18 | 4.8 | 4.8 | 0.00 | 0.00 | 0.00 | 80 | 1014.4 |
| 20260507123404 | 8 | 135 | 3.2 | 8.0 | 0.00 | 0.00 | 0.00 | 81 | 1014.6 |
| 20260507122900 | 8 | 357 | 1.6 | 3.2 | 0.00 | 0.00 | 0.00 | 81 | 1014.5 |
| 20260507122355 | 8 | 60 | 1.6 | 4.8 | 0.00 | 0.00 | 0.00 | 82 | 1014.6 |
| 20260507121852 | 7 | 88 | 3.2 | 4.8 | 0.00 | 0.00 | 0.00 | 82 | 1014.4 |
| 20260507121347 | 7 | 327 | 3.2 | 3.2 | 0.00 | 0.00 | 0.00 | 82 | 1014.5 |
| 20260507120844 | 7 | 43 | 1.6 | 1.6 | 0.00 | 0.00 | 0.00 | 82 | 1014.4 |
| 20260507120340 | 7 | 20 | 1.6 | 3.2 | 0.00 | 0.00 | 0.00 | 83 | 1014.3 |
| 20260507115837 | 7 | 37 | 3.2 | 4.8 | 0.00 | 0.00 | 0.00 | 83 | 1014.4 |
| 20260507115333 | 7 | 48 | 4.8 | 8.0 | 0.00 | 0.00 | 0.00 | 83 | 1014.2 |
| 20260507114828 | 7 | 114 | 1.6 | 1.6 | 0.00 | 0.00 | 0.00 | 83 | 1014.5 |
| 20260507114326 | 7 | 41 | 0.0 | 0.0 | 0.00 | 0.00 | 0.00 | 83 | 1014.6 |
| 20260507113823 | 7 | 117 | 1.6 | 1.6 | 0.00 | 0.00 | 0.00 | 83 | 1014.6 |
| 20260507113320 | 7 | 62 | 1.6 | 3.2 | 0.00 | 0.00 | 0.00 | 83 | 1014.5 |
| 20260507112817 | 7 | 37 | 1.6 | 1.6 | 0.00 | 0.00 | 0.00 | 82 | 1014.5 |
| 20260507112314 | 7 | 26 | 1.6 | 1.6 | 0.00 | 0.00 | 0.00 | 83 | 1014.5 |
| 20260507111812 | 7 | 48 | 0.0 | 1.6 | 0.00 | 0.00 | 0.00 | 82 | 1014.4 |
| 20260507111308 | 7 | 69 | 0.0 | 1.6 | 0.00 | 0.00 | 0.00 | 82 | 1014.3 |
| 20260507110804 | 7 | 124 | 3.2 | 3.2 | 0.00 | 0.00 | 0.00 | 82 | 1014.2 |
| 20260507110301 | 7 | 178 | 6.4 | 11.3 | 0.00 | 0.00 | 0.00 | 81 | 1014.4 |
| 20260507105758 | 7 | 190 | 3.2 | 3.2 | 0.00 | 0.00 | 0.00 | 81 | 1014.3 |
| 20260507105254 | 7 | 196 | 4.8 | 4.8 | 0.00 | 0.00 | 0.00 | 81 | 1014.3 |
| 20260507104751 | 7 | 22 | 0.0 | 1.6 | 0.00 | 0.00 | 0.00 | 81 | 1014.4 |
| 20260507104248 | 7 | 172 | 3.2 | 4.8 | 0.00 | 0.00 | 0.00 | 80 | 1014.3 |
| 20260507103744 | 7 | 87 | 1.6 | 3.2 | 0.00 | 0.00 | 0.00 | 81 | 1014.5 |
| 20260507103240 | 7 | 48 | 3.2 | 3.2 | 0.00 | 0.00 | 0.00 | 80 | 1014.4 |
| 20260507102736 | 7 | 180 | 4.8 | 8.0 | 0.00 | 0.00 | 0.00 | 80 | 1014.4 |
| 20260507102233 | 7 | 14 | 3.2 | 3.2 | 0.00 | 0.00 | 0.00 | 80 | 1014.4 |
| 20260507101729 | 7 | 26 | 1.6 | 3.2 | 0.00 | 0.00 | 0.00 | 80 | 1014.8 |
| 20260507101225 | 7 | 27 | 1.6 | 1.6 | 0.00 | 0.00 | 0.00 | 79 | 1014.9 |
| 20260507100722 | 7 | 59 | 1.6 | 1.6 | 0.00 | 0.00 | 0.00 | 79 | 1014.6 |
| 20260507100220 | 7 | 51 | 0.0 | 1.6 | 0.00 | 0.00 | 0.00 | 79 | 1014.8 |
| 20260507095718 | 7 | 338 | 3.2 | 3.2 | 0.00 | 0.00 | 0.00 | 79 | 1014.8 |
| 20260507095214 | 7 | 86 | 3.2 | 8.0 | 0.00 | 0.00 | 0.00 | 79 | 1014.6 |
| 20260507094711 | 7 | 136 | 3.2 | 4.8 | 0.00 | 0.00 | 0.00 | 78 | 1014.9 |
| 20260507094208 | 7 | 109 | 1.6 | 3.2 | 0.00 | 0.00 | 0.00 | 78 | 1014.8 |
| 20260507093705 | 8 | 42 | 1.6 | 1.6 | 0.00 | 0.00 | 0.00 | 78 | 1015.0 |
| 20260507093204 | 7 | 29 | 0.0 | 1.6 | 0.00 | 0.00 | 0.00 | 78 | 1015.0 |
| 20260507092700 | 8 | 54 | 0.0 | 0.0 | 0.00 | 0.00 | 0.00 | 78 | 1015.1 |
| 20260507092157 | 8 | 64 | 0.0 | 1.6 | 0.00 | 0.00 | 0.00 | 77 | 1015.1 |
| 20260507091653 | 8 | 117 | 3.2 | 3.2 | 0.00 | 0.00 | 0.00 | 77 | 1015.4 |
| 20260507091150 | 8 | 98 | 1.6 | 1.6 | 0.00 | 0.00 | 0.00 | 77 | 1015.1 |
| 20260507090645 | 8 | 41 | 1.6 | 1.6 | 0.00 | 0.00 | 0.00 | 76 | 1015.4 |
| 20260507090143 | 8 | 115 | 1.6 | 1.6 | 0.00 | 0.00 | 0.00 | 76 | 1015.5 |
| 20260507085639 | 8 | 60 | 1.6 | 1.6 | 0.00 | 0.00 | 0.00 | 76 | 1015.5 |
| 20260507085136 | 8 | 35 | 0.0 | 1.6 | 0.00 | 0.00 | 0.00 | 76 | 1015.3 |
| 20260507084633 | 8 | 52 | 0.0 | 0.0 | 0.00 | 0.00 | 0.00 | 76 | 1015.4 |
| 20260507084130 | 8 | 106 | 1.6 | 1.6 | 0.00 | 0.00 | 0.00 | 75 | 1015.2 |
| 20260507083626 | 8 | 72 | 0.0 | 0.0 | 0.00 | 0.00 | 0.00 | 74 | 1015.2 |
| 20260507083123 | 8 | 323 | 4.8 | 4.8 | 0.00 | 0.00 | 0.00 | 74 | 1015.4 |
| 20260507082619 | 8 | 137 | 1.6 | 3.2 | 0.00 | 0.00 | 0.00 | 74 | 1015.5 |
| 20260507082116 | 8 | 49 | 3.2 | 4.8 | 0.00 | 0.00 | 0.00 | 73 | 1015.6 |
| 20260507081612 | 8 | 244 | 3.2 | 3.2 | 0.00 | 0.00 | 0.00 | 73 | 1015.5 |
| 20260507081109 | 8 | 88 | 1.6 | 1.6 | 0.00 | 0.00 | 0.00 | 72 | 1015.6 |
| 20260507080605 | 8 | 62 | 0.0 | 0.0 | 0.00 | 0.00 | 0.00 | 72 | 1015.6 |
| 20260507075556 | 8 | 22 | 0.0 | 0.0 | 0.00 | 0.00 | 0.00 | 72 | 1015.9 |
| 20260507075053 | 8 | 5 | 3.2 | 3.2 | 0.00 | 0.00 | 0.00 | 71 | 1016.1 |
| 20260507074550 | 8 | 119 | 1.6 | 3.2 | 0.00 | 0.00 | 0.00 | 70 | 1016.0 |
| 20260507074049 | 8 | 26 | 1.6 | 1.6 | 0.00 | 0.00 | 0.00 | 70 | 1016.0 |
| 20260507073544 | 8 | 125 | 1.6 | 3.2 | 0.00 | 0.00 | 0.00 | 69 | 1016.1 |
| 20260507073041 | 8 | 118 | 1.6 | 1.6 | 0.00 | 0.00 | 0.00 | 68 | 1016.1 |
| 20260507072539 | 8 | 105 | 1.6 | 1.6 | 0.00 | 0.00 | 0.00 | 69 | 1016.1 |
| 20260507072036 | 8 | 64 | 0.0 | 0.0 | 0.00 | 0.00 | 0.00 | 67 | 1016.3 |
| 20260507071533 | 8 | 59 | 1.6 | 1.6 | 0.00 | 0.00 | 0.00 | 67 | 1016.3 |
| 20260507071030 | 8 | 194 | 3.2 | 4.8 | 0.00 | 0.00 | 0.00 | 66 | 1016.4 |
| 20260507070527 | 9 | 55 | 0.0 | 0.0 | 0.00 | 0.00 | 0.00 | 65 | 1016.5 |
| 20260507070024 | 9 | 69 | 3.2 | 4.8 | 0.00 | 0.00 | 0.00 | 64 | 1016.3 |
| 20260507065520 | 9 | 66 | 0.0 | 1.6 | 0.00 | 0.00 | 0.00 | 64 | 1016.5 |
| 20260507065017 | 9 | 116 | 1.6 | 1.6 | 0.00 | 0.00 | 0.00 | 63 | 1016.5 |
| 20260507064515 | 9 | 192 | 1.6 | 3.2 | 0.00 | 0.00 | 0.00 | 62 | 1016.5 |
| 20260507064014 | 9 | 78 | 1.6 | 1.6 | 0.00 | 0.00 | 0.00 | 62 | 1016.7 |
| 20260507063510 | 10 | 80 | 0.0 | 0.0 | 0.00 | 0.00 | 0.00 | 60 | 1016.5 |
| 20260507063008 | 10 | 77 | 0.0 | 1.6 | 0.00 | 0.00 | 0.00 | 59 | 1016.7 |
| 20260507062504 | 10 | 27 | 1.6 | 3.2 | 0.00 | 0.00 | 0.00 | 58 | 1016.6 |
| 20260507062001 | 10 | 15 | 1.6 | 1.6 | 0.00 | 0.00 | 0.00 | 57 | 1016.8 |
| 20260507061459 | 10 | 99 | 1.6 | 4.8 | 0.00 | 0.00 | 0.00 | 57 | 1016.8 |
| 20260507060957 | 10 | 223 | 1.6 | 1.6 | 0.00 | 0.00 | 0.00 | 55 | 1016.9 |
| 20260507060454 | 10 | 36 | 1.6 | 1.6 | 0.00 | 0.00 | 0.00 | 55 | 1016.9 |
| 20260507055951 | 10 | 138 | 1.6 | 3.2 | 0.00 | 0.00 | 0.00 | 53 | 1017.0 |
| 20260507055446 | 10 | 70 | 0.0 | 1.6 | 0.00 | 0.00 | 0.00 | 54 | 1016.9 |
| 20260507054943 | 10 | 152 | 3.2 | 3.2 | 0.00 | 0.00 | 0.00 | 52 | 1016.9 |
| 20260507054439 | 10 | 88 | 1.6 | 3.2 | 0.00 | 0.00 | 0.00 | 52 | 1016.9 |
| 20260507053936 | 9 | 71 | 0.0 | 0.0 | 0.00 | 0.00 | 0.00 | 54 | 1017.2 |
| 20260507053434 | 8 | 80 | 1.6 | 1.6 | 0.00 | 0.00 | 0.00 | 57 | 1016.9 |
| 20260507052932 | 8 | 107 | 1.6 | 1.6 | 0.00 | 0.00 | 0.00 | 59 | 1017.0 |
| 20260507052429 | 8 | 83 | 0.0 | 0.0 | 0.00 | 0.00 | 0.00 | 60 | 1017.1 |
| 20260507051926 | 7 | 71 | 1.6 | 1.6 | 0.00 | 0.00 | 0.00 | 60 | 1016.9 |
| 20260507051424 | 6 | 77 | 0.0 | 0.0 | 0.00 | 0.00 | 0.00 | 67 | 1017.0 |
| 20260507050921 | 5 | 57 | 1.6 | 1.6 | 0.00 | 0.00 | 0.00 | 74 | 1017.2 |
| 20260507050417 | 5 | 47 | 0.0 | 0.0 | 0.00 | 0.00 | 0.00 | 78 | 1017.0 |
| 20260507045914 | 5 | 47 | 0.0 | 0.0 | 0.00 | 0.00 | 0.00 | 79 | 1017.1 |
| 20260507045411 | 5 | 47 | 0.0 | 0.0 | 0.00 | 0.00 | 0.00 | 80 | 1016.9 |
| 20260507044908 | 5 | 47 | 0.0 | 0.0 | 0.00 | 0.00 | 0.00 | 79 | 1017.1 |
| 20260507044405 | 5 | 47 | 0.0 | 0.0 | 0.00 | 0.00 | 0.00 | 79 | 1017.2 |
| 20260507043901 | 5 | 47 | 0.0 | 0.0 | 0.00 | 0.00 | 0.00 | 79 | 1017.3 |
| 20260507043357 | 5 | 47 | 0.0 | 0.0 | 0.00 | 0.00 | 0.00 | 79 | 1017.3 |
| 20260507042854 | 5 | 47 | 0.0 | 0.0 | 0.00 | 0.00 | 0.00 | 79 | 1017.5 |
| 20260507042350 | 5 | 47 | 0.0 | 0.0 | 0.00 | 0.00 | 0.00 | 78 | 1017.4 |
| 20260507041846 | 5 | 47 | 0.0 | 0.0 | 0.00 | 0.00 | 0.00 | 78 | 1017.3 |
| 20260507041343 | 5 | 47 | 0.0 | 0.0 | 0.00 | 0.00 | 0.00 | 79 | 1017.4 |
| 20260507040840 | 5 | 47 | 0.0 | 0.0 | 0.00 | 0.00 | 0.00 | 78 | 1017.3 |
| 20260507040336 | 5 | 47 | 0.0 | 0.0 | 0.00 | 0.00 | 0.00 | 77 | 1017.5 |
| 20260507035832 | 5 | 47 | 0.0 | 0.0 | 0.00 | 0.00 | 0.00 | 76 | 1017.4 |
| 20260507035328 | 5 | 47 | 0.0 | 0.0 | 0.00 | 0.00 | 0.00 | 75 | 1017.6 |
| 20260507034826 | 5 | 47 | 0.0 | 0.0 | 0.00 | 0.00 | 0.00 | 75 | 1017.6 |
| 20260507034322 | 5 | 47 | 0.0 | 0.0 | 0.00 | 0.00 | 0.00 | 74 | 1017.5 |
| 20260507033821 | 6 | 47 | 0.0 | 0.0 | 0.00 | 0.00 | 0.00 | 74 | 1017.5 |
| 20260507033318 | 6 | 47 | 0.0 | 0.0 | 0.00 | 0.00 | 0.00 | 74 | 1017.5 |
| 20260507032815 | 6 | 47 | 0.0 | 0.0 | 0.00 | 0.00 | 0.00 | 72 | 1017.7 |
| 20260507032311 | 6 | 47 | 0.0 | 0.0 | 0.00 | 0.00 | 0.00 | 70 | 1017.7 |
| 20260507031808 | 6 | 47 | 0.0 | 0.0 | 0.00 | 0.00 | 0.00 | 69 | 1017.7 |
| 20260507031305 | 6 | 47 | 0.0 | 0.0 | 0.00 | 0.00 | 0.00 | 69 | 1017.6 |
| 20260507030801 | 6 | 47 | 0.0 | 0.0 | 0.00 | 0.00 | 0.00 | 68 | 1017.6 |
| 20260507030259 | 7 | 47 | 0.0 | 0.0 | 0.00 | 0.00 | 0.00 | 70 | 1017.5 |
| 20260507025756 | 7 | 47 | 0.0 | 0.0 | 0.00 | 0.00 | 0.00 | 71 | 1017.6 |
| 20260507025253 | 7 | 47 | 0.0 | 0.0 | 0.00 | 0.00 | 0.00 | 70 | 1017.8 |
| 20260507024751 | 7 | 47 | 0.0 | 0.0 | 0.00 | 0.00 | 0.00 | 67 | 1017.6 |
| 20260507024248 | 7 | 47 | 0.0 | 0.0 | 0.00 | 0.00 | 0.00 | 65 | 1017.6 |
| 20260507023743 | 8 | 47 | 0.0 | 0.0 | 0.00 | 0.00 | 0.00 | 63 | 1017.4 |
| 20260507023240 | 8 | 47 | 0.0 | 0.0 | 0.00 | 0.00 | 0.00 | 61 | 1017.5 |
| 20260507022738 | 8 | 47 | 0.0 | 0.0 | 0.00 | 0.00 | 0.00 | 62 | 1017.5 |
| 20260507022233 | 8 | 46 | 0.0 | 0.0 | 0.00 | 0.00 | 0.00 | 64 | 1017.5 |
| 20260507021730 | 9 | 46 | 0.0 | 0.0 | 0.00 | 0.00 | 0.00 | 61 | 1017.4 |
| 20260507021225 | 9 | 46 | 0.0 | 0.0 | 0.00 | 0.00 | 0.00 | 59 | 1017.3 |
| 20260507020724 | 9 | 46 | 0.0 | 0.0 | 0.00 | 0.00 | 0.00 | 58 | 1017.4 |
| 20260507020220 | 10 | 47 | 0.0 | 0.0 | 0.00 | 0.00 | 0.00 | 53 | 1017.4 |
| 20260507015718 | 10 | 46 | 0.0 | 0.0 | 0.00 | 0.00 | 0.00 | 56 | 1017.3 |
| 20260507015215 | 10 | 46 | 0.0 | 0.0 | 0.00 | 0.00 | 0.00 | 57 | 1017.0 |
| 20260507014711 | 11 | 46 | 0.0 | 0.0 | 0.00 | 0.00 | 0.00 | 55 | 1017.1 |
| 20260507014208 | 11 | 47 | 0.0 | 0.0 | 0.00 | 0.00 | 0.00 | 51 | 1017.3 |
| 20260507013705 | 11 | 47 | 0.0 | 0.0 | 0.00 | 0.00 | 0.00 | 49 | 1017.4 |
| 20260507013202 | 11 | 23 | 0.0 | 0.0 | 0.00 | 0.00 | 0.00 | 50 | 1017.2 |
| 20260507012659 | 12 | 23 | 0.0 | 0.0 | 0.00 | 0.00 | 0.00 | 46 | 1017.3 |
| 20260507012155 | 12 | 23 | 0.0 | 0.0 | 0.00 | 0.00 | 0.00 | 43 | 1017.1 |
| 20260507011653 | 12 | 23 | 0.0 | 0.0 | 0.00 | 0.00 | 0.00 | 42 | 1017.2 |
| 20260507011149 | 12 | 23 | 0.0 | 0.0 | 0.00 | 0.00 | 0.00 | 42 | 1017.2 |
| 20260507010643 | 13 | 23 | 0.0 | 0.0 | 0.00 | 0.00 | 0.00 | 38 | 1017.3 |
| 20260507010140 | 13 | 23 | 0.0 | 0.0 | 0.00 | 0.00 | 0.00 | 37 | 1017.2 |
| 20260507005637 | 13 | 23 | 0.0 | 0.0 | 0.00 | 0.00 | 0.00 | 36 | 1017.4 |
| 20260507005133 | 13 | 23 | 0.0 | 0.0 | 0.00 | 0.00 | 0.00 | 40 | 1017.2 |
| 20260507004630 | 14 | 23 | 0.0 | 0.0 | 0.00 | 0.00 | 0.00 | 41 | 1017.4 |
| 20260507004122 | 14 | 23 | 0.0 | 0.0 | 0.00 | 0.00 | 0.00 | 34 | 1017.4 |
| 20260507003618 | 14 | 19 | 1.6 | 1.6 | 0.00 | 0.00 | 0.00 | 33 | 1017.2 |
| 20260507003113 | 14 | 63 | 1.6 | 1.6 | 0.00 | 0.00 | 0.00 | 35 | 1017.4 |
| 20260507002609 | 15 | 18 | 0.0 | 0.0 | 0.00 | 0.00 | 0.00 | 33 | 1017.2 |
| 20260507002105 | 15 | 358 | 1.6 | 3.2 | 0.00 | 0.00 | 0.00 | 30 | 1017.4 |
| 20260507001602 | 15 | 39 | 0.0 | 1.6 | 0.00 | 0.00 | 0.00 | 33 | 1017.3 |
| 20260507001100 | 15 | 44 | 1.6 | 1.6 | 0.00 | 0.00 | 0.00 | 32 | 1017.3 |
| 20260507000556 | 15 | 47 | 0.0 | 1.6 | 0.00 | 0.00 | 0.00 | 32 | 1017.3 |
| 20260507000051 | 15 | 351 | 3.2 | 3.2 | 0.00 | 0.00 | 0.00 | 31 | 1017.5 |
| 20260506235549 | 15 | 29 | 1.6 | 1.6 | 0.00 | 0.00 | 0.00 | 33 | 1017.5 |
| 20260506235044 | 15 | 346 | 4.8 | 4.8 | 0.00 | 0.00 | 0.00 | 29 | 1017.8 |
| 20260506234542 | 15 | 24 | 1.6 | 1.6 | 0.00 | 0.00 | 0.00 | 31 | 1017.7 |
| 20260506234039 | 15 | 314 | 4.8 | 8.0 | 0.00 | 0.00 | 0.00 | 31 | 1017.7 |
| 20260506233536 | 15 | 36 | 1.6 | 1.6 | 0.00 | 0.00 | 0.00 | 31 | 1017.6 |
| 20260506233033 | 15 | 15 | 1.6 | 1.6 | 0.00 | 0.00 | 0.00 | 32 | 1017.8 |
| 20260506232529 | 15 | 1 | 4.8 | 4.8 | 0.00 | 0.00 | 0.00 | 31 | 1017.5 |
| 20260506232024 | 15 | 30 | 3.2 | 3.2 | 0.00 | 0.00 | 0.00 | 33 | 1017.5 |
| 20260506231522 | 15 | 321 | 3.2 | 4.8 | 0.00 | 0.00 | 0.00 | 33 | 1017.6 |
| 20260506231020 | 15 | 49 | 1.6 | 1.6 | 0.00 | 0.00 | 0.00 | 32 | 1017.8 |
| 20260506230516 | 15 | 28 | 3.2 | 3.2 | 0.00 | 0.00 | 0.00 | 32 | 1017.6 |
| 20260506230014 | 15 | 305 | 8.0 | 9.7 | 0.00 | 0.00 | 0.00 | 28 | 1017.7 |
| 20260506225510 | 16 | 345 | 4.8 | 4.8 | 0.00 | 0.00 | 0.00 | 29 | 1017.6 |
| 20260506225007 | 16 | 273 | 6.4 | 8.0 | 0.00 | 0.00 | 0.00 | 27 | 1017.8 |
| 20260506224503 | 16 | 147 | 1.6 | 3.2 | 0.00 | 0.00 | 0.00 | 28 | 1017.8 |
| 20260506224000 | 15 | 288 | 8.0 | 9.7 | 0.00 | 0.00 | 0.00 | 26 | 1017.8 |
| 20260506223456 | 16 | 336 | 4.8 | 4.8 | 0.00 | 0.00 | 0.00 | 29 | 1017.9 |
| 20260506222953 | 17 | 8 | 4.8 | 4.8 | 0.00 | 0.00 | 0.00 | 33 | 1017.7 |
| 20260506222449 | 17 | 22 | 1.6 | 4.8 | 0.00 | 0.00 | 0.00 | 29 | 1018.1 |
| 20260506221946 | 16 | 349 | 8.0 | 8.0 | 0.00 | 0.00 | 0.00 | 29 | 1017.7 |
| 20260506221444 | 15 | 312 | 4.8 | 4.8 | 0.00 | 0.00 | 0.00 | 29 | 1017.9 |
| 20260506220942 | 15 | 28 | 4.8 | 4.8 | 0.00 | 0.00 | 0.00 | 34 | 1018.1 |
| 20260506220437 | 15 | 274 | 9.7 | 12.9 | 0.00 | 0.00 | 0.00 | 28 | 1017.9 |
| 20260506215933 | 16 | 354 | 3.2 | 3.2 | 0.00 | 0.00 | 0.00 | 30 | 1018.1 |
| 20260506215430 | 17 | 321 | 6.4 | 8.0 | 0.00 | 0.00 | 0.00 | 27 | 1018.2 |
| 20260506214926 | 17 | 349 | 6.4 | 9.7 | 0.00 | 0.00 | 0.00 | 32 | 1018.2 |
| 20260506214422 | 17 | 358 | 3.2 | 3.2 | 0.00 | 0.00 | 0.00 | 32 | 1018.2 |
| 20260506213921 | 16 | 302 | 1.6 | 3.2 | 0.00 | 0.00 | 0.00 | 30 | 1018.2 |
| 20260506213418 | 15 | 27 | 3.2 | 4.8 | 0.00 | 0.00 | 0.00 | 32 | 1018.3 |
| 20260506212915 | 16 | 291 | 8.0 | 12.9 | 0.00 | 0.00 | 0.00 | 30 | 1018.3 |
| 20260506212411 | 16 | 3 | 6.4 | 9.7 | 0.00 | 0.00 | 0.00 | 27 | 1018.5 |
| 20260506211906 | 16 | 357 | 1.6 | 3.2 | 0.00 | 0.00 | 0.00 | 30 | 1018.4 |
| 20260506211402 | 17 | 330 | 1.6 | 3.2 | 0.00 | 0.00 | 0.00 | 32 | 1018.4 |
| 20260506210859 | 16 | 303 | 8.0 | 11.3 | 0.00 | 0.00 | 0.00 | 29 | 1018.7 |
| 20260506210356 | 16 | 354 | 6.4 | 11.3 | 0.00 | 0.00 | 0.00 | 32 | 1018.8 |
| 20260506205848 | 17 | 351 | 6.4 | 11.3 | 0.00 | 0.00 | 0.00 | 29 | 1018.5 |
| 20260506205344 | 17 | 335 | 6.4 | 8.0 | 0.00 | 0.00 | 0.00 | 31 | 1018.8 |
| 20260506204840 | 17 | 213 | 3.2 | 3.2 | 0.00 | 0.00 | 0.00 | 32 | 1018.7 |
| 20260506204338 | 16 | 349 | 6.4 | 8.0 | 0.00 | 0.00 | 0.00 | 31 | 1018.8 |
| 20260506203836 | 17 | 357 | 4.8 | 4.8 | 0.00 | 0.00 | 0.00 | 33 | 1019.1 |
| 20260506203333 | 16 | 4 | 4.8 | 8.0 | 0.00 | 0.00 | 0.00 | 31 | 1019.0 |
| 20260506202829 | 16 | 29 | 6.4 | 9.7 | 0.00 | 0.00 | 0.00 | 34 | 1018.8 |
| 20260506202327 | 15 | 299 | 9.7 | 14.5 | 0.00 | 0.00 | 0.00 | 31 | 1019.0 |
| 20260506201823 | 15 | 30 | 0.0 | 1.6 | 0.00 | 0.00 | 0.00 | 33 | 1019.1 |
| 20260506201321 | 16 | 16 | 8.0 | 11.3 | 0.00 | 0.00 | 0.00 | 33 | 1019.0 |
| 20260506200817 | 15 | 332 | 4.8 | 4.8 | 0.00 | 0.00 | 0.00 | 34 | 1019.3 |
| 20260506200313 | 14 | 13 | 6.4 | 8.0 | 0.00 | 0.00 | 0.00 | 36 | 1019.4 |
| 20260506195809 | 14 | 12 | 4.8 | 8.0 | 0.00 | 0.00 | 0.00 | 35 | 1019.4 |
| 20260506195307 | 14 | 353 | 11.3 | 11.3 | 0.00 | 0.00 | 0.00 | 33 | 1019.4 |
| 20260506194804 | 14 | 25 | 8.0 | 11.3 | 0.00 | 0.00 | 0.00 | 34 | 1019.3 |
| 20260506194300 | 15 | 330 | 3.2 | 3.2 | 0.00 | 0.00 | 0.00 | 31 | 1019.4 |
| 20260506193758 | 15 | 74 | 0.0 | 0.0 | 0.00 | 0.00 | 0.00 | 40 | 1019.6 |
| 20260506193254 | 15 | 126 | 1.6 | 1.6 | 0.00 | 0.00 | 0.00 | 34 | 1019.4 |
| 20260506192750 | 15 | 59 | 1.6 | 3.2 | 0.00 | 0.00 | 0.00 | 33 | 1019.5 |
| 20260506192248 | 15 | 359 | 4.8 | 4.8 | 0.00 | 0.00 | 0.00 | 33 | 1019.6 |
| 20260506191744 | 14 | 56 | 3.2 | 8.0 | 0.00 | 0.00 | 0.00 | 34 | 1019.5 |
| 20260506191241 | 14 | 355 | 3.2 | 3.2 | 0.00 | 0.00 | 0.00 | 33 | 1019.6 |
| 20260506190738 | 15 | 338 | 6.4 | 14.5 | 0.00 | 0.00 | 0.00 | 34 | 1019.7 |
| 20260506190234 | 15 | 345 | 6.4 | 8.0 | 0.00 | 0.00 | 0.00 | 33 | 1019.5 |
| 20260506185732 | 15 | 32 | 4.8 | 11.3 | 0.00 | 0.00 | 0.00 | 36 | 1019.5 |
| 20260506185228 | 15 | 51 | 0.0 | 1.6 | 0.00 | 0.00 | 0.00 | 33 | 1019.6 |
| 20260506184725 | 15 | 11 | 4.8 | 4.8 | 0.00 | 0.00 | 0.00 | 36 | 1019.4 |
| 20260506184223 | 14 | 317 | 1.6 | 1.6 | 0.00 | 0.00 | 0.00 | 36 | 1019.6 |
| 20260506183720 | 13 | 346 | 6.4 | 8.0 | 0.00 | 0.00 | 0.00 | 36 | 1019.7 |
| 20260506183215 | 14 | 75 | 4.8 | 8.0 | 0.00 | 0.00 | 0.00 | 35 | 1019.9 |
| 20260506182712 | 13 | 350 | 4.8 | 4.8 | 0.00 | 0.00 | 0.00 | 37 | 1019.8 |
| 20260506182209 | 14 | 56 | 0.0 | 1.6 | 0.00 | 0.00 | 0.00 | 33 | 1019.9 |
| 20260506181707 | 13 | 350 | 3.2 | 3.2 | 0.00 | 0.00 | 0.00 | 36 | 1020.2 |
| 20260506181205 | 14 | 343 | 8.0 | 8.0 | 0.00 | 0.00 | 0.00 | 36 | 1019.7 |
| 20260506180702 | 13 | 52 | 3.2 | 4.8 | 0.00 | 0.00 | 0.00 | 33 | 1020.0 |
| 20260506180157 | 14 | 316 | 3.2 | 3.2 | 0.00 | 0.00 | 0.00 | 33 | 1020.2 |
| 20260506175654 | 14 | 346 | 1.6 | 3.2 | 0.00 | 0.00 | 0.00 | 36 | 1020.4 |
| 20260506175150 | 13 | 284 | 4.8 | 9.7 | 0.00 | 0.00 | 0.00 | 37 | 1020.3 |
| 20260506174643 | 13 | 34 | 3.2 | 8.0 | 0.00 | 0.00 | 0.00 | 36 | 1020.3 |
| 20260506174139 | 13 | 295 | 12.9 | 14.5 | 0.00 | 0.00 | 0.00 | 32 | 1020.4 |
| 20260506173637 | 13 | 300 | 6.4 | 11.3 | 0.00 | 0.00 | 0.00 | 35 | 1020.4 |
| 20260506173133 | 13 | 307 | 4.8 | 8.0 | 0.00 | 0.00 | 0.00 | 34 | 1020.4 |
| 20260506172631 | 13 | 0 | 3.2 | 4.8 | 0.00 | 0.00 | 0.00 | 34 | 1020.2 |
| 20260506172121 | 13 | 0 | 6.4 | 8.0 | 0.00 | 0.00 | 0.00 | 35 | 1020.6 |
| 20260506171620 | 13 | 18 | 6.4 | 8.0 | 0.00 | 0.00 | 0.00 | 35 | 1020.3 |
| 20260506171117 | 13 | 356 | 8.0 | 9.7 | 0.00 | 0.00 | 0.00 | 33 | 1020.5 |
| 20260506170615 | 13 | 46 | 8.0 | 9.7 | 0.00 | 0.00 | 0.00 | 34 | 1020.4 |
| 20260506170111 | 12 | 45 | 4.8 | 9.7 | 0.00 | 0.00 | 0.00 | 35 | 1020.6 |
| 20260506165609 | 12 | 7 | 1.6 | 3.2 | 0.00 | 0.00 | 0.00 | 36 | 1020.7 |
| 20260506165105 | 12 | 40 | 6.4 | 9.7 | 0.00 | 0.00 | 0.00 | 33 | 1020.9 |
| 20260506164603 | 12 | 31 | 8.0 | 9.7 | 0.00 | 0.00 | 0.00 | 35 | 1020.8 |
| 20260506164100 | 12 | 352 | 6.4 | 8.0 | 0.00 | 0.00 | 0.00 | 35 | 1020.7 |
| 20260506163555 | 12 | 347 | 4.8 | 4.8 | 0.00 | 0.00 | 0.00 | 34 | 1020.6 |
| 20260506163051 | 12 | 44 | 3.2 | 4.8 | 0.00 | 0.00 | 0.00 | 37 | 1020.6 |
| 20260506162548 | 12 | 42 | 0.0 | 0.0 | 0.00 | 0.00 | 0.00 | 36 | 1020.7 |
| 20260506162045 | 12 | 43 | 3.2 | 3.2 | 0.00 | 0.00 | 0.00 | 36 | 1020.6 |
| 20260506161542 | 11 | 36 | 4.8 | 8.0 | 0.00 | 0.00 | 0.00 | 39 | 1020.6 |
| 20260506161039 | 11 | 12 | 4.8 | 4.8 | 0.00 | 0.00 | 0.00 | 38 | 1020.8 |
| 20260506160537 | 12 | 90 | 0.0 | 1.6 | 0.00 | 0.00 | 0.00 | 45 | 1020.6 |
| 20260506160034 | 11 | 352 | 8.0 | 11.3 | 0.00 | 0.00 | 0.00 | 39 | 1020.8 |
| 20260506155532 | 11 | 34 | 1.6 | 3.2 | 0.00 | 0.00 | 0.00 | 40 | 1020.6 |
| 20260506153703 | 11 | 341 | 4.8 | 4.8 | 0.00 | 0.00 | 0.00 | 40 | 1020.8 |
| 20260506153201 | 11 | 8 | 4.8 | 4.8 | 0.00 | 0.00 | 0.00 | 41 | 1020.5 |
| 20260506152657 | 11 | 41 | 1.6 | 1.6 | 0.00 | 0.00 | 0.00 | 43 | 1020.6 |